CW9352 Weather Reports


Display with metric or nautical units.
time (UTC)temp
F
wind
direction
speed
MPH
gust
MPH
rain 1hr
in
rain 24hr
in
rain mn
in
humidity
%
barometer
mb
20260904013518 83 0.0 0.0 0.00 0.00 0.00 85 1016.0
20260904012018 83 0.0 0.0 0.00 0.00 0.00 84 1015.9
20260904011017 83 0.0 0.0 0.00 0.00 0.00 84 1015.8
20260904010017 84 0.0 0.0 0.00 0.00 0.00 83 1015.7
20260904005019 84 0.0 0.0 0.00 0.00 0.00 82 1015.6
20260904004017 84 0.0 0.0 0.00 0.00 0.00 82 1015.5
20260904003017 84 0.0 0.0 0.00 0.00 0.00 81 1015.3
20260904002017 85 271 0.0 1.0 0.00 0.00 0.00 81 1015.3
20260904001017 85 0.0 1.0 0.00 0.00 0.00 80 1015.3
20260904000017 85 191 0.0 3.0 0.00 0.00 0.00 79 1015.4
20260903235037 85 142 0.0 2.0 0.00 0.00 0.00 79 1015.2
20260903234017 85 153 0.0 1.0 0.00 0.00 0.00 79 1015.2
20260903233015 85 217 0.0 1.0 0.00 0.00 0.00 79 1015.1
20260903232037 85 197 0.0 3.0 0.00 0.00 0.00 78 1015.1
20260903231018 85 179 0.0 1.0 0.00 0.00 0.00 80 1015.0
20260903230016 85 155 0.0 2.0 0.00 0.00 0.00 81 1015.0
20260903225039 85 210 0.0 1.0 0.00 0.00 0.00 82 1015.0
20260903224037 85 171 0.0 1.0 0.00 0.00 0.00 82 1015.0
20260903223516 85 233 0.0 4.0 0.00 0.00 0.00 81 1015.0
20260903222517 86 186 0.0 1.0 0.00 0.00 0.00 80 1015.1
20260903221517 86 203 0.0 3.0 0.00 0.00 0.00 77 1015.1
20260903220537 86 174 0.0 3.0 0.00 0.00 0.00 76 1015.2
20260903215517 86 253 0.0 2.0 0.00 0.00 0.00 76 1015.1
20260903214517 86 170 0.0 2.0 0.00 0.00 0.00 76 1015.0
20260903213517 86 165 0.0 3.0 0.00 0.00 0.00 76 1015.1
20260903212517 86 134 0.0 2.0 0.00 0.00 0.00 76 1015.2
20260903211517 87 159 1.0 5.0 0.00 0.00 0.00 77 1015.3
20260903210517 87 151 1.0 4.0 0.00 0.00 0.00 76 1015.4
20260903205517 87 147 0.0 4.0 0.00 0.00 0.00 76 1015.6
20260903204517 87 153 1.0 6.0 0.00 0.00 0.00 76 1015.6
20260903203517 87 148 1.0 5.0 0.00 0.00 0.00 76 1015.7
20260903202516 87 124 0.0 2.0 0.00 0.00 0.00 76 1015.7
20260903202017 87 128 1.0 4.0 0.00 0.00 0.00 76 1015.7
20260903201017 87 119 2.0 6.0 0.00 0.00 0.00 74 1016.0
20260903200017 88 134 0.0 4.0 0.00 0.01 0.00 75 1016.1
20260903195017 87 101 2.0 8.0 0.00 0.01 0.00 77 1016.2
20260903194017 88 136 1.0 4.0 0.00 0.01 0.00 77 1016.3
20260903193037 87 118 1.0 5.0 0.00 0.01 0.00 78 1016.5
20260903192017 88 124 2.0 6.0 0.00 0.01 0.00 77 1016.5
20260903191017 88 144 1.0 3.0 0.00 0.01 0.00 77 1016.5
20260903190021 88 97 1.0 6.0 0.00 0.01 0.00 78 1016.6
20260903185017 88 136 1.0 4.0 0.00 0.01 0.00 79 1016.6
20260903184517 88 124 2.0 8.0 0.00 0.01 0.00 78 1016.7
20260903183517 88 155 2.0 6.0 0.00 0.01 0.00 79 1016.8
20260903182517 88 130 2.0 6.0 0.00 0.01 0.00 79 1016.9
20260903181517 89 109 3.0 7.0 0.00 0.01 0.00 78 1017.0
20260903180517 89 170 2.0 6.0 0.00 0.01 0.00 77 1017.1
20260903175517 89 73 1.0 5.0 0.00 0.01 0.00 74 1017.1
20260903174517 89 93 1.0 6.0 0.00 0.01 0.00 72 1017.2
20260903173517 89 72 2.0 5.0 0.00 0.01 0.00 73 1017.3
20260903172519 89 70 4.0 9.0 0.00 0.01 0.00 72 1017.3
20260903172017 89 89 1.0 4.0 0.00 0.01 0.00 71 1017.6
20260903171017 90 92 0.0 5.0 0.00 0.01 0.00 70 1017.6
20260903170037 90 85 1.0 7.0 0.00 0.01 0.00 70 1017.6
20260903165017 90 95 0.0 5.0 0.00 0.01 0.00 70 1017.7
20260903164017 90 65 0.0 7.0 0.00 0.01 0.00 71 1017.7
20260903163017 90 93 2.0 7.0 0.00 0.01 0.00 71 1017.8
20260903162017 89 62 1.0 4.0 0.00 0.01 0.00 72 1017.7
20260903161058 89 72 1.0 5.0 0.00 0.01 0.00 72 1017.6
20260903160017 89 82 1.0 6.0 0.00 0.01 0.00 71 1017.6
20260903155017 89 54 1.0 6.0 0.00 0.01 0.00 71 1017.6
20260903154016 90 60 0.0 2.0 0.00 0.01 0.00 71 1017.4
20260903153017 90 78 2.0 7.0 0.00 0.01 0.00 70 1017.3
20260903152017 91 92 1.0 7.0 0.00 0.01 0.00 71 1017.2
20260903150516 89 0.0 2.0 0.00 0.01 0.00 75 1017.2
20260903145517 88 39 0.0 4.0 0.00 0.01 0.00 76 1017.2
20260903144516 88 57 0.0 3.0 0.00 0.01 0.00 75 1017.2
20260903143517 89 71 0.0 4.0 0.00 0.01 0.00 75 1017.4
20260903142517 88 57 0.0 2.0 0.00 0.01 0.00 79 1017.3
20260903141517 86 49 0.0 5.0 0.00 0.01 0.00 81 1017.3
20260903140517 85 55 0.0 2.0 0.00 0.01 0.00 85 1017.2
20260903135516 83 57 0.0 4.0 0.00 0.01 0.00 88 1017.3
20260903134517 82 45 0.0 3.0 0.00 0.01 0.00 90 1017.4
20260903133516 81 59 0.0 3.0 0.00 0.01 0.00 91 1017.5
20260903132518 80 62 0.0 2.0 0.00 0.01 0.00 92 1017.5
20260903131517 80 75 0.0 3.0 0.00 0.01 0.00 93 1017.5
20260903130516 79 80 0.0 2.0 0.00 0.01 0.00 94 1017.3
20260903125517 79 42 0.0 1.0 0.00 0.01 0.00 94 1017.2
20260903124537 79 37 0.0 2.0 0.00 0.01 0.00 95 1017.2
20260903123516 79 55 0.0 2.0 0.00 0.01 0.00 95 1017.2
20260903122516 78 54 0.0 2.0 0.00 0.01 0.00 96 1017.2
20260903121536 78 44 0.0 1.0 0.00 0.01 0.00 97 1017.2
20260903120516 78 41 0.0 1.0 0.00 0.01 0.00 97 1017.2
20260903115516 78 41 0.0 1.0 0.00 0.01 0.00 97 1017.0
20260903114517 78 40 0.0 1.0 0.00 0.01 0.00 97 1016.8
20260903113517 78 0.0 0.0 0.00 0.01 0.00 97 1016.6
20260903112516 77 44 0.0 1.0 0.00 0.01 0.00 98 1016.6
20260903111516 77 0.0 0.0 0.00 0.01 0.00 98 1016.6
20260903110537 78 46 0.0 1.0 0.00 0.01 0.00 98 1016.7
20260903105516 78 0.0 0.0 0.00 0.01 0.00 98 1016.6
20260903104516 78 0.0 0.0 0.00 0.01 0.00 98 1016.6
20260903103516 78 0.0 0.0 0.00 0.01 0.00 98 1016.5
20260903102516 78 0.0 0.0 0.00 0.01 0.00 98 1016.4
20260903102016 78 0.0 0.0 0.00 0.01 0.00 98 1016.3
20260903101016 78 0.0 0.0 0.00 0.01 0.00 98 1016.3
20260903100016 78 47 0.0 1.0 0.00 0.01 0.00 98 1016.4
20260903095016 78 0.0 0.0 0.00 0.01 0.00 98 1016.4
20260903083016 78 0.0 0.0 0.00 0.01 0.00 98 1016.5
20260903082016 78 0.0 0.0 0.00 0.01 0.00 98 1016.4
20260903081056 78 0.0 0.0 0.00 0.01 0.00 98 1016.3
20260903080016 78 0.0 0.0 0.00 0.01 0.00 97 1016.4
20260903075016 79 0.0 0.0 0.00 0.01 0.00 97 1016.4
20260903074016 79 0.0 0.0 0.00 0.01 0.00 97 1016.4
20260903073016 79 0.0 0.0 0.00 0.01 0.00 97 1016.5
20260903072017 79 0.0 0.0 0.00 0.01 0.00 97 1016.7
20260903071016 79 0.0 0.0 0.00 0.01 0.00 97 1016.8
20260903070016 79 0.0 0.0 0.00 0.01 0.00 97 1016.9
20260903065016 79 0.0 0.0 0.00 0.01 0.00 97 1016.8
20260903064036 79 0.0 0.0 0.00 0.01 0.00 97 1017.0
20260903063016 79 0.0 0.0 0.00 0.01 0.00 97 1017.0
20260903062016 79 0.0 0.0 0.00 0.01 0.00 97 1017.1
20260903061016 79 0.0 0.0 0.00 0.01 0.00 97 1017.2
20260903060016 79 0.0 0.0 0.00 0.01 0.00 97 1017.3
20260903055016 79 0.0 0.0 0.00 0.01 0.00 97 1017.3
20260903054016 79 0.0 0.0 0.00 0.01 0.00 97 1017.3
20260903053016 79 0.0 0.0 0.00 0.01 0.00 96 1017.3
20260903052016 79 0.0 0.0 0.00 0.01 0.00 96 1017.3
20260903051016 79 0.0 0.0 0.00 0.01 0.00 96 1017.3
20260903050016 79 0.0 0.0 0.00 0.01 0.00 96 1017.2
20260903045016 79 0.0 0.0 0.00 0.01 0.01 96 1017.0
20260903044036 79 0.0 0.0 0.00 0.01 0.01 95 1017.0
20260903043036 79 0.0 0.0 0.00 0.01 0.01 95 1017.1
20260903042016 79 0.0 0.0 0.00 0.01 0.01 95 1017.1
20260903041016 80 0.0 0.0 0.00 0.01 0.01 95 1017.1
20260903040017 80 0.0 0.0 0.00 0.01 0.01 95 1017.1
20260903035016 80 0.0 0.0 0.00 0.01 0.01 94 1017.2
20260903034016 80 0.0 0.0 0.00 0.01 0.01 94 1017.3
20260903033016 80 0.0 0.0 0.00 0.01 0.01 95 1017.4
20260903032016 80 0.0 0.0 0.00 0.01 0.01 94 1017.3
20260903031016 80 0.0 0.0 0.00 0.01 0.01 94 1017.2
20260903030016 80 0.0 0.0 0.00 0.01 0.01 94 1017.4
20260903025015 80 0.0 0.0 0.00 0.01 0.01 93 1017.4
20260903024016 80 0.0 0.0 0.00 0.01 0.01 93 1017.4
20260903023016 80 0.0 0.0 0.00 0.01 0.01 93 1017.4
20260903022016 80 0.0 0.0 0.00 0.01 0.01 92 1017.3
20260903021016 81 0.0 0.0 0.00 0.01 0.01 92 1017.2
20260903020016 81 0.0 0.0 0.00 0.01 0.01 91 1017.2
20260903015016 81 0.0 0.0 0.00 0.01 0.01 90 1017.0
20260903014015 82 0.0 0.0 0.00 0.01 0.01 90 1017.1